www.pogodaiklimat.ru

Погода и климат >> Архив погоды >> Колумбия >> Villavicencio


ПОГОДА в Villavicencio

  • Прогноз погоды в Villavicencio
  • Монитор погоды в Villavicencio
  • Климат города

АРХИВ ПОГОДЫ в Villavicencio

Время (UTC), дата Ветер
(напр.,м/с)
 
Видим.   Явления Облачность Т
(С)
Тd
(С)
f
(%)
Тe
(С)
Тes
(С)
Комфортность P
(гПа)
Po
(гПа)
Тmin
(С)
Tmax
(С)
R
(мм)
R24
(мм)
S
(см)
15 11.10 штиль 0 12 км 10/5 600 м
[St Ac As]
+24.8 +19.9 74 +30 +34 душно 1013.0 963.7
18 11.10 штиль 0 12 км 8/3 600 м
[Sc Ac trans Ci sp]
+27.6 +20.6 66 +34 +46 очень
душно
1010.0 961.0
21 11.10 штиль 0 12 км 6/1 600 м
[Sc Ac trans Ci sp]
+27.8 +21.1 67 +35 +39 очень
душно
1007.0 957.7
12 12.10 СЗ 1 12 км 9/3 600 м
[Sc Ac As Ci fib]
+22.6 +21.5 94 +30 +31 очень
душно
1012.0 963.1 +21.0 0.2
15 12.10 ЮВ 4 12 км 8/1 600 м
[Cu hum Ac As Ci fib]
+28.2 +22.2 70 +37 +43 очень
душно
1013.0 963.8
18 12.10 З 4 8000 м морось {дождь} 10/6 450 м
[Frnb Ac As]
+23.6 +21.3 87 +30 +32 очень
душно
1010.0 961.2 5
21 12.10 штиль 0 12 км 8/3 600 м
[Sc Ac trans Ci fib]
+27.8 +20.5 65 +35 +37 очень
душно
1008.0 958.7
12 13.10 штиль 0 12 км 10/8 600 м
[St Ac As]
+22.3 +21.5 95 +29 +29 очень
душно
1013.0 963.6 +20.7 59
15 13.10 СВ 2 12 км 10/8 600 м
[St Ac trans]
+24.2 +21.1 83 +31 +32 очень
душно
1015.0 965.7
18 13.10 СВ 3 12 км 9/6 600 м
[Sc Ac As Ci fib]
+26.8 +20.6 69 +33 +37 очень
душно
1012.0 962.7
21 13.10 СВ 2 12 км 9/4 600 м
[Sc Ac As Ci fib]
+29.0 +20.6 61 +36 +38 очень
душно
1009.0 959.5
00 14.10 СВ 1 12 км 8/3 600 м
[Sc Ac As Ci fib]
+24.2 +22.0 88 +31 +31 очень
душно
1010.0 960.5 +29.4
12 14.10 З 2 12 км 8/1 600 м
[Sc Ac As Ci fib]
+23.0 +21.9 94 +31 +32 очень
душно
1012.0 963.1 +21.8 4
15 14.10 В 2 12 км 6/1 600 м
[Sc Ac As Ci fib]
+29.2 +22.0 65 +38 +48 очень
душно
1014.0 964.6
18 14.10 В 2 12 км 5/5 600 м
[Cu hum]
+30.5 +19.9 53 +37 +46 очень
душно
1011.0 961.9
21 14.10 штиль 0 12 км 3/3 600 м
[Cu hum Ci fib]
+31.1 +19.0 49 +37 +41 очень
душно
1007.0 957.7
00 15.10 штиль 0 12 км 6/3 600 м
[Sc Ci fib]
+26.0 +21.1 74 +33 +33 очень
душно
1009.0 960.0 +31.2
12 15.10 штиль 0 12 км {морось} 8/4 600 м
[Sc Ac trans Ci fib]
+22.8 +20.8 88 +30 +31 очень
душно
1011.0 961.6 +21.1 24
15 15.10 В 2 12 км 4/3 600 м
[Sc Ci fib]
+28.5 +20.0 60 +35 +46 очень
душно
1013.0 963.6
18 15.10 В 4 10 км осадки на расстоянии 8/6 600 м
[Sc Ac As Ci fib]
+29.4 +20.6 59 +36 +40 очень
душно
1010.0 960.5
21 15.10 СВ 2 12 км {морось} 10/4 600 м
[Sc Ac As]
+24.2 +22.3 89 +31 +32 очень
душно
1009.0 960.1
12 16.10 З 1 12 км 9/1 600 м
[Sc Ac As Ci fib]
+21.6 +20.8 95 +27 +28 душно 1010.0 961.2 +20.8 2
15 16.10 В 2 12 км 3/1 600 м
[Cu hum Ac As Ci fib]
+28.6 +22.3 69 +37 +50 очень
душно
1012.0 963.1
18 16.10 В 3 12 км 5/4 600 м
[Sc Ac trans Ci fib]
+31.6 +21.8 56 +40 +49 очень
душно
1009.0 959.8
21 16.10 СЗ 3 12 км 5/3 600 м
[Sc Ac trans Ci fib]
+27.2 +19.2 62 +33 +35 очень
душно
1006.0 956.9
12 17.10 штиль 0 12 км 4/0
[Ac trans Cc]
+26.6 +20.1 68 +33 +35 очень
душно
1009.0 960.0 +20.0
15 17.10 В 2 12 км 1/0
[Ci fib]
+30.8 +20.6 55 +38 +53 опасность
солнечного
удара
1010.0 961.0
18 17.10 В 4 12 км 6/5 600 м
[Sc Ac As Ci fib]
+32.6 +20.7 50 +40 +46 очень
душно
1008.0 959.0
21 17.10 В 4 12 км 6/5 600 м
[Sc Ac As Ci fib]
+32.6 +20.7 50 +40 +41 очень
душно
1008.0 959.0

 

Местоположение метеостанции Villavicencio (Колумбия): широта 4.17 долгота -73.61 высота над уровнем моря 431 м.

В архиве по умолчанию представлена погода в Villavicencio за последнюю неделю. Архивные данные за месяц целиком и за предыдущие месяцы, начиная с января 2011 года, Вы можете получить, выбрав интересующий диапазон дат из раскрывающегося списка и нажав кнопку "Ввод!".


*Определитесь, кто Вы:
робот инопланетянин человек

Внимание! Время в таблицах - всемирное. Для получения местного времени необходимо прибавить поправку, которая в Villavicencio равна -5 ч.

Смотрите также архив погоды в соседних городах и на ближайших метеорологических станциях:

Погода в Bogota (Колумбия) (82 км)
Погода в Ibague (Колумбия) (173 км)
Погода в Neiva (Колумбия) (230 км)
Погода в Armenia (Колумбия) (236 км)
Погода в Pereira (Колумбия) (246 км)
Погода в Rionegro (Колумбия) (297 км)
Погода в Cali (Колумбия) (315 км)
Погода в Medellin (Колумбия) (317 км)
Погода в Barrancabermeja (Колумбия) (318 км)
Погода в Bucaramanga (Колумбия) (329 км)

Пояснения к столбцам:

Ветер - указаны скорость ветра в м/с - средняя за 10 мин, порывы в срок и между сроками (в фигурных скобках) и направление, откуда дует ветер: С - северный, СВ - северо-восточный, В - восточный, ЮВ - юго-восточный, Ю - южный, ЮЗ - юго-западный, З - западный, СЗ - северо-западный.
Видимость - горизонтальная дальность видимости в метрах или километрах. При видимости от 1 до 10 км при отсутствии осадков обычно наблюдается дымка, при ухудшении видимости до 1 км и менее - туман. В сухую погоду видимость может ухудшаться дымом, пылью или мглою.
Явления - указаны атмосферные явления, наблюдавшиеся в срок или в последний час перед сроком; фигурными скобками обозначены явления, наблюдавшиеся между сроками (за 1-3 часа до срока); квадратными скобками обозначены град или гололедные отложения с указанием их диаметра в мм.
Облачность - указаны через наклонную черту общая и нижняя облачность в баллах и высота нижней границы облаков в метрах; квадратными скобками обозначены формы облаков: Ci - перистые, Cs - перисто-слоистые, Cc - перисто-кучевые, Ac - высококучевые, As - высокослоистые, Sc - слоисто-кучевые, Ns - слоисто-дождевые, Cu - кучевые, Cb - кучево-дождевые. Подробнее классификацию облаков см. в Атласе облаков (PDF).
T - Температура воздуха - температура, измеренная на высоте 2 м над землей.
Td - Температура точки росы - температура, при понижении до которой содержащийся в воздухе водяной пар достигнет насыщения.
f - Относительная влажность воздуха - влажноcть воздуха, измеренная на высоте 2 м над землей.
Te - Эффективная температура - температура, которую ощущает одетый по сезону человек в тени. Характеристика душности погоды. При расчете учитывается влияние влажности воздуха и скорости ветра на теплоощущения человека.
Tes - Эффективная температура на солнце - температура, которую ощущает человек, с поправкой на солнечный нагрев. Характеристика знойности погоды. Зависит от высоты солнца над горизонтом, облачности и скорости ветра. Ночью, в пасмурную погоду, а также при ветре 12 м/с и более поправка равна нулю.
P - Атмосферное давление - приведенное к уровню моря атмосферное давление.
Po - Атмосферное давление - измеренное на уровне метеостанции атмосферное давление.
Tmin - Минимальная температура - минимум температуры воздуха на высоте 2 м над землей.
Tmax - Максимальная температура - максимум температуры воздуха на высоте 2 м над землей.
R - Количество осадков - Количество выпавших осадков за период времени, мм. При наведении курсора мыши на число - период времени, за который выпало указанное количество осадков.
R24 - Количество осадков - Количество выпавших осадков за 24 часа, мм.
S - Снежный покров - Высота снежного покрова, см. При наведении курсора мыши на число - состояние снежного покрова и степень покрытия местности в баллах.